Dauntless Aviation
Airports Europe Croatia
LDDU
DBV

Dubrovnik

Dubrovnik, CROATIA

Airport Info
Suggest Updated Information for this Airport

Location

Latitude / Longitude: 42°33'41"N / 18°16'5"E
  42°33.684'N / 18°16.092'E
  42.5614 / 18.2682

Nearby radio navigation aids

CV DUBROVNIK NDB. 117.6° 2.8nm from CV to field.
DBK DUBROVNIK VOR/DME on field.
GR DUBROVNIK NDB. 294.2° 2.9nm from GR to field.
KLP KOLOCEP NDB. 118.0° 12.7nm from KLP to field.

Runway Information

Runway 12 /30

Dimensions: 10827 x 148 ft.
Surface: ASP
 
Runway 12
Runway 30
Latitude: 42.569225 42.555819
Longitude: 18.2484 18.282192
Elevation: 519 ft. 519 ft.
Runway true heading: 117.6 297.6
 

Instrument Procedures

  Aerodrome Chart
  Aircraft Parking/Docking Chart

STARs (Standard Terminal Arrivals)

  STAR - Instrument (STAR) - Rwy 12/30

IAPs (Instrument Approach Procedures)

  Visual Manoeuvering - Circling Chart (IFR) - Circling Rwy 30
  Aerodrome Obstacle Chart - Type A - Rwy 30
  Aerodrome Obstacle Chart - Type A - Rwy 12
  VOR Rwy 12
  Bird Concentrations
  Visual Operation Chart
  VOR-A Rwy 30
  L Rwy 12
  ILS or LOC Rwy 12
  ATC Surveillance Minimum Altitude Chart

Departure Procedures

  SID - Instrument (SID) - Rwy 30
  SID - Instrument (SID) - Rwy 12
Satellite photo at:
Airport distance calculator
From:
Weather Reports

METAR

LDDU

LDDU 252030Z 10006KT CAVOK 17/12 Q1017 NOSIG
LYTV
22.6nm E
LYTV 252030Z VRB02KT 9999 FEW060 16/13 Q1017

TAF

LDDU
TAF LDDU 251725Z 2518/2618 02004KT 9999 FEW040 TX22/2612Z TN16/2605Z BECMG 2520/2522 02015KT BECMG 2607/2609 20007KT TEMPO 2614/2616 28008KT
LYTV
22.6nm E
TAF LYTV 251700Z 2518/2618 35005KT CAVOK TX26/2612Z TN09/2603Z
Safelog

 

Dauntless Aviation

© 2007-2016 Dauntless Aviation, all rights reserved
Information provided via PilotNav comes from a variety of official and unofficial data sources. As errors are possible, do not use PilotNav for primary flight planning purposes. Verify any information that you receive via PilotNav with current and canonical charts and other official documents. The material in this database is subject to database copyrights held by Dauntless Aviation and may not be copied without the express permission of Dauntless Aviation - licenses for use of part of all of this data are available for purchase; enquire via the Dauntless Aviation helpdesk. A number of mechanisms and markers exist in the database to protect against and identify infringement / copyright. Automated queries against this website are stictly prohibited, and all activity is logged and analyzed.